�������l�o���
Date,Time,MP-1(��Sv/h),MP-2(��Sv/h),MP-3(��Sv/h),MP-4(��Sv/h),MP-5(��Sv/h),MP-6(��Sv/h),MP-7(��Sv/h),MP-8(��Sv/h),����,����(m/s),���J
2020/12/06,00:00,0.659,0.946,0.602,1.197,0.840,0.380,0.671,0.630,���k��,1.2,��
2020/12/06,00:10,0.659,0.942,0.602,1.201,0.841,0.379,0.669,0.631,�k��,1.1,��
2020/12/06,00:20,0.660,0.944,0.602,1.200,0.840,0.381,0.669,0.629,�k��,1.7,��
2020/12/06,00:30,0.659,0.945,0.601,1.198,0.841,0.381,0.672,0.631,�k��,1.7,��
2020/12/06,00:40,0.658,0.945,0.602,1.200,0.840,0.381,0.669,0.629,���k��,2.3,��
2020/12/06,00:50,0.657,0.947,0.602,1.198,0.841,0.379,0.671,0.631,���k��,3.5,��
2020/12/06,01:00,0.659,0.946,0.602,1.199,0.842,0.379,0.668,0.629,���k��,3.4,��
2020/12/06,01:10,0.660,0.945,0.601,1.200,0.842,0.380,0.668,0.630,�k��,3.7,��
2020/12/06,01:20,0.660,0.944,0.602,1.199,0.838,0.380,0.668,0.630,�k�k��,3.8,��
2020/12/06,01:30,0.660,0.944,0.601,1.201,0.840,0.381,0.669,0.629,�k�k��,4.0,��
2020/12/06,01:40,0.658,0.944,0.602,1.198,0.839,0.380,0.669,0.631,�k,4.8,��
2020/12/06,01:50,0.658,0.945,0.602,1.201,0.841,0.380,0.670,0.631,�k,4.5,��
2020/12/06,02:00,0.658,0.944,0.600,1.199,0.842,0.379,0.670,0.631,�k,4.9,��
2020/12/06,02:10,0.658,0.944,0.602,1.200,0.838,0.380,0.669,0.631,�k�k��,4.6,��
2020/12/06,02:20,0.659,0.943,0.599,1.197,0.839,0.380,0.669,0.631,�k�k��,4.9,��
2020/12/06,02:30,0.657,0.945,0.601,1.202,0.839,0.379,0.670,0.631,�k�k��,4.1,��
2020/12/06,02:40,0.659,0.944,0.601,1.201,0.839,0.381,0.669,0.632,�k�k��,4.1,��
2020/12/06,02:50,0.660,0.943,0.601,1.200,0.839,0.378,0.670,0.630,�k�k��,4.1,��
2020/12/06,03:00,0.656,0.946,0.602,1.201,0.838,0.382,0.668,0.630,�k�k��,4.1,��
2020/12/06,03:10,0.659,0.944,0.602,1.199,0.839,0.378,0.669,0.629,�k�k��,3.2,��
2020/12/06,03:20,0.656,0.941,0.602,1.202,0.839,0.379,0.669,0.631,�k�k��,2.9,��
2020/12/06,03:30,0.657,0.944,0.602,1.199,0.838,0.380,0.668,0.630,�k��,3.5,��
2020/12/06,03:40,0.658,0.944,0.601,1.200,0.841,0.381,0.670,0.631,�k��,4.8,��
2020/12/06,03:50,0.658,0.943,0.601,1.202,0.838,0.379,0.670,0.630,�k��,5.8,��
2020/12/06,04:00,0.657,0.945,0.602,1.200,0.839,0.378,0.667,0.631,���k��,6.3,��
2020/12/06,04:10,0.657,0.947,0.601,1.199,0.838,0.380,0.668,0.631,���k��,6.7,��
2020/12/06,04:20,0.657,0.942,0.601,1.200,0.838,0.379,0.670,0.630,���k��,5.8,��
2020/12/06,04:30,0.658,0.945,0.601,1.199,0.838,0.380,0.670,0.630,�k��,5.4,��
2020/12/06,04:40,0.657,0.943,0.601,1.200,0.839,0.379,0.670,0.631,�k��,5.7,��
2020/12/06,04:50,0.658,0.945,0.601,1.201,0.841,0.379,0.671,0.631,�k��,5.7,��
2020/12/06,05:00,0.655,0.944,0.602,1.202,0.839,0.380,0.670,0.632,�k��,6.2,��
2020/12/06,05:10,0.653,0.943,0.601,1.203,0.841,0.379,0.669,0.630,�k��,6.5,��
2020/12/06,05:20,0.656,0.944,0.602,1.199,0.842,0.379,0.669,0.630,�k��,6.4,��
2020/12/06,05:30,0.656,0.943,0.601,1.199,0.840,0.379,0.668,0.632,�k��,5.8,��
2020/12/06,05:40,0.655,0.944,0.601,1.200,0.839,0.379,0.670,0.630,�k��,4.3,��
2020/12/06,05:50,0.655,0.945,0.601,1.201,0.837,0.380,0.670,0.630,�k��,4.0,��
2020/12/06,06:00,0.656,0.943,0.602,1.201,0.839,0.379,0.671,0.631,�k��,3.8,��
2020/12/06,06:10,0.657,0.943,0.602,1.200,0.839,0.379,0.670,0.630,�k��,6.1,��
2020/12/06,06:20,0.657,0.945,0.601,1.203,0.841,0.380,0.670,0.631,�k��,6.1,��
2020/12/06,06:30,0.658,0.943,0.601,1.201,0.840,0.379,0.668,0.631,�k��,6.4,��
2020/12/06,06:40,0.657,0.944,0.602,1.200,0.838,0.380,0.669,0.629,�k��,5.2,��
2020/12/06,06:50,0.656,0.942,0.600,1.201,0.841,0.380,0.668,0.632,�k��,5.3,��
2020/12/06,07:00,0.658,0.944,0.601,1.200,0.838,0.378,0.669,0.632,�k�k��,3.8,��
2020/12/06,07:10,0.657,0.944,0.602,1.201,0.850,0.381,0.669,0.630,�k�k��,4.1,��
2020/12/06,07:20,0.659,0.944,0.600,1.202,0.839,0.380,0.669,0.630,�k�k��,3.7,��
2020/12/06,07:30,0.657,0.944,0.601,1.201,0.839,0.378,0.669,0.631,�k��,3.8,��
2020/12/06,07:40,0.658,0.945,0.601,1.200,0.841,0.380,0.668,0.632,�k��,2.8,��
2020/12/06,07:50,0.658,0.946,0.600,1.203,0.840,0.380,0.669,0.630,�k�k��,2.3,��
2020/12/06,08:00,0.659,0.946,0.601,1.202,0.839,0.378,0.669,0.630,�k�k��,2.6,��
2020/12/06,08:10,0.658,0.946,0.600,1.201,0.839,0.380,0.670,0.632,�k��,3.0,��
2020/12/06,08:20,0.659,0.945,0.602,1.205,0.839,0.379,0.670,0.632,�k��,2.9,��
2020/12/06,08:30,0.660,0.945,0.601,1.200,0.839,0.381,0.672,0.631,�k�k��,3.3,��
2020/12/06,08:40,0.662,0.948,0.603,1.203,0.841,0.381,0.670,0.630,�k�k��,3.2,��
2020/12/06,08:50,0.660,0.947,0.602,1.200,0.841,0.380,0.673,0.632,�k,3.8,��
2020/12/06,09:00,0.659,0.945,0.601,1.202,0.841,0.381,0.672,0.631,�k,5.1,��
2020/12/06,09:10,0.660,0.949,0.604,1.203,0.843,0.380,0.672,0.631,�k,4.7,��
2020/12/06,09:20,0.661,0.947,0.603,1.201,0.842,0.380,0.672,0.630,�k,4.2,��
2020/12/06,09:30,0.660,0.945,0.602,1.201,0.843,0.381,0.672,0.633,�k,4.0,��
2020/12/06,09:40,0.661,0.946,0.603,1.205,0.840,0.379,0.672,0.632,�k�k��,3.3,��
2020/12/06,09:50,0.660,0.945,0.604,1.204,0.843,0.380,0.670,0.633,�k�k��,4.0,��
2020/12/06,10:00,0.661,0.947,0.603,1.203,0.843,0.381,0.669,0.631,�k�k��,4.3,��
2020/12/06,10:10,0.662,0.946,0.605,1.201,0.843,0.381,0.672,0.631,�k�k��,4.1,��
2020/12/06,10:20,0.662,0.945,0.604,1.205,0.844,0.381,0.670,0.633,�k�k��,3.8,��
2020/12/06,10:30,0.662,0.947,0.603,1.203,0.845,0.381,0.671,0.632,�k�k��,3.5,��
2020/12/06,10:40,0.661,0.948,0.605,1.203,0.843,0.381,0.671,0.631,�k�k��,4.3,��
2020/12/06,10:50,0.664,0.948,0.604,1.204,0.846,0.383,0.671,0.631,�k�k��,4.5,��
2020/12/06,11:00,0.662,0.948,0.605,1.205,0.844,0.382,0.671,0.633,�k�k��,4.5,��
2020/12/06,11:10,0.662,0.949,0.604,1.205,0.845,0.381,0.670,0.632,�k�k��,4.8,��
2020/12/06,11:20,0.662,0.947,0.603,1.204,0.844,0.381,0.670,0.632,�k�k��,5.0,��
2020/12/06,11:30,0.662,0.949,0.605,1.204,0.848,0.382,0.670,0.632,�k,5.3,��
2020/12/06,11:40,0.662,0.950,0.604,1.203,0.845,0.380,0.670,0.632,�k�k��,5.3,��
2020/12/06,11:50,0.662,0.948,0.604,1.204,0.846,0.382,0.671,0.634,�k,4.6,��
2020/12/06,12:00,0.663,0.949,0.604,1.204,0.847,0.381,0.672,0.632,�k,4.5,��
2020/12/06,12:10,0.665,0.949,0.606,1.204,0.846,0.383,0.672,0.633,�k,3.8,��
2020/12/06,12:20,0.662,0.950,0.606,1.203,0.847,0.382,0.672,0.634,�k�k��,4.3,��
2020/12/06,12:30,0.663,0.949,0.606,1.204,0.848,0.381,0.673,0.632,�k�k��,4.9,��
2020/12/06,12:40,0.664,0.951,0.605,1.203,0.847,0.381,0.672,0.631,�k,5.6,��
2020/12/06,12:50,0.664,0.950,0.607,1.205,0.846,0.380,0.673,0.631,�k�k��,5.4,��
2020/12/06,13:00,0.665,0.950,0.606,1.204,0.848,0.381,0.674,0.632,�k�k��,4.5,��
2020/12/06,13:10,0.665,0.952,0.608,1.207,0.849,0.381,0.672,0.631,�k�k��,4.9,��
2020/12/06,13:20,0.665,0.950,0.607,1.205,0.849,0.381,0.671,0.633,�k�k��,4.7,��
2020/12/06,13:30,0.666,0.949,0.606,1.207,0.848,0.382,0.673,0.631,�k�k��,4.5,��
2020/12/06,13:40,0.666,0.951,0.607,1.207,0.847,0.381,0.673,0.632,�k�k��,3.3,��
2020/12/06,13:50,0.664,0.951,0.606,1.205,0.850,0.382,0.673,0.629,�k�k��,4.2,��
2020/12/06,14:00,0.663,0.953,0.606,1.206,0.848,0.381,0.672,0.630,�k�k��,3.8,��
2020/12/06,14:10,0.664,0.950,0.607,1.203,0.848,0.381,0.672,0.631,�k��,3.4,��
2020/12/06,14:20,0.665,0.952,0.609,1.204,0.847,0.382,0.673,0.631,�k�k��,3.4,��
2020/12/06,14:30,0.666,0.952,0.608,1.204,0.848,0.382,0.672,0.629,�k�k��,2.6,��
2020/12/06,14:40,0.664,0.951,0.608,1.206,0.848,0.381,0.674,0.631,�k��,2.6,��
2020/12/06,14:50,0.665,0.953,0.608,1.205,0.848,0.381,0.673,0.632,�k��,2.3,��
2020/12/06,15:00,0.665,0.956,0.608,1.205,0.849,0.382,0.676,0.634,���k��,2.0,��
2020/12/06,15:10,0.666,0.958,0.609,1.205,0.847,0.382,0.673,0.634,�k��,1.5,��
2020/12/06,15:20,0.665,0.956,0.610,1.205,0.849,0.383,0.672,0.633,�k��,1.2,��
2020/12/06,15:30,0.666,0.955,0.608,1.205,0.848,0.383,0.673,0.633,�k��,0.9,��
2020/12/06,15:40,0.665,0.954,0.608,1.206,0.849,0.382,0.672,0.634,�k��,1.2,��
2020/12/06,15:50,0.664,0.955,0.608,1.203,0.847,0.382,0.674,0.632,���k��,1.1,��
2020/12/06,16:00,0.665,0.955,0.606,1.204,0.847,0.381,0.674,0.633,��,0.8,��
2020/12/06,16:10,0.665,0.953,0.608,1.204,0.848,0.381,0.673,0.632,��,0.6,��
2020/12/06,16:20,0.664,0.956,0.608,1.205,0.848,0.381,0.672,0.633,-,CALM,��
2020/12/06,16:30,0.667,0.953,0.606,1.206,0.848,0.382,0.673,0.633,-,CALM,��
2020/12/06,16:40,0.665,0.955,0.607,1.203,0.850,0.381,0.674,0.633,���k��,0.6,��
2020/12/06,16:50,0.664,0.956,0.607,1.205,0.845,0.381,0.673,0.632,-,CALM,��
2020/12/06,17:00,0.666,0.955,0.608,1.203,0.848,0.381,0.673,0.632,-,CALM,��
2020/12/06,17:10,0.664,0.953,0.607,1.204,0.848,0.382,0.674,0.633,��,0.8,��
2020/12/06,17:20,0.666,0.954,0.607,1.205,0.845,0.382,0.673,0.633,���쐼,0.9,��
2020/12/06,17:30,0.664,0.954,0.607,1.204,0.847,0.381,0.673,0.633,���쐼,0.9,��
2020/12/06,17:40,0.664,0.956,0.608,1.206,0.847,0.382,0.673,0.634,�쐼,0.9,��
2020/12/06,17:50,0.665,0.954,0.609,1.206,0.848,0.380,0.672,0.633,���쐼,1.7,��
2020/12/06,18:00,0.665,0.955,0.608,1.205,0.846,0.381,0.672,0.633,�쐼,1.2,��
2020/12/06,18:10,0.665,0.954,0.608,1.205,0.847,0.382,0.673,0.633,���쐼,1.2,��
2020/12/06,18:20,0.663,0.956,0.607,1.203,0.848,0.381,0.672,0.633,���쐼,0.9,��
2020/12/06,18:30,0.665,0.954,0.607,1.206,0.847,0.383,0.672,0.632,���쐼,1.1,��
2020/12/06,18:40,0.664,0.953,0.607,1.206,0.847,0.382,0.673,0.633,�쐼,1.5,��
2020/12/06,18:50,0.665,0.953,0.607,1.206,0.846,0.380,0.673,0.632,�쐼,1.2,��
2020/12/06,19:00,0.662,0.954,0.608,1.203,0.848,0.382,0.673,0.633,�쐼,1.7,��
2020/12/06,19:10,0.663,0.953,0.609,1.205,0.847,0.382,0.672,0.632,�쐼,1.5,��
2020/12/06,19:20,0.664,0.955,0.606,1.205,0.847,0.381,0.672,0.633,�쐼,1.7,��
2020/12/06,19:30,0.664,0.954,0.606,1.205,0.847,0.380,0.672,0.633,�쐼,2.0,��
2020/12/06,19:40,0.663,0.953,0.609,1.205,0.847,0.381,0.672,0.632,�쐼,1.7,��
2020/12/06,19:50,0.664,0.954,0.608,1.204,0.848,0.382,0.671,0.633,��,1.9,��
2020/12/06,20:00,0.663,0.952,0.606,1.204,0.848,0.381,0.672,0.636,��,2.3,��
2020/12/06,20:10,0.664,0.954,0.607,1.204,0.848,0.381,0.671,0.631,��,2.3,��
2020/12/06,20:20,0.664,0.955,0.607,1.203,0.847,0.381,0.673,0.633,��,2.8,��
2020/12/06,20:30,0.662,0.954,0.607,1.202,0.849,0.380,0.672,0.633,��,2.9,��
2020/12/06,20:40,0.665,0.952,0.607,1.205,0.849,0.380,0.673,0.631,��,3.4,��
2020/12/06,20:50,0.664,0.952,0.607,1.205,0.848,0.379,0.673,0.632,��,3.4,��
2020/12/06,21:00,0.665,0.954,0.608,1.204,0.847,0.381,0.672,0.634,��쐼,3.3,��
2020/12/06,21:10,0.664,0.954,0.605,1.203,0.848,0.380,0.670,0.632,��쐼,3.1,��
2020/12/06,21:20,0.663,0.951,0.605,1.205,0.849,0.382,0.672,0.633,��쐼,2.8,��
2020/12/06,21:30,0.665,0.951,0.607,1.203,0.847,0.381,0.673,0.634,��,2.5,��
2020/12/06,21:40,0.664,0.953,0.607,1.204,0.846,0.380,0.671,0.634,��쐼,2.0,��
2020/12/06,21:50,0.665,0.953,0.606,1.203,0.846,0.380,0.671,0.632,��쐼,1.7,��
2020/12/06,22:00,0.664,0.953,0.607,1.204,0.846,0.382,0.672,0.634,��쐼,2.0,��
2020/12/06,22:10,0.663,0.952,0.606,1.205,0.846,0.381,0.672,0.632,��쐼,2.8,��
2020/12/06,22:20,0.665,0.954,0.608,1.206,0.847,0.380,0.672,0.632,�쐼,2.2,��
2020/12/06,22:30,0.666,0.954,0.608,1.206,0.847,0.381,0.671,0.633,���k��,0.6,��
2020/12/06,22:40,0.664,0.952,0.606,1.204,0.847,0.381,0.672,0.634,-,CALM,��
2020/12/06,22:50,0.665,0.953,0.606,1.205,0.849,0.382,0.674,0.633,�k,0.8,��
2020/12/06,23:00,0.663,0.953,0.606,1.203,0.848,0.381,0.672,0.633,-,CALM,��
2020/12/06,23:10,0.664,0.953,0.606,1.205,0.848,0.381,0.672,0.633,�쓌,1.2,��
2020/12/06,23:20,0.664,0.953,0.607,1.204,0.845,0.380,0.671,0.633,�쓌,1.2,��
2020/12/06,23:30,0.665,0.952,0.607,1.205,0.847,0.381,0.672,0.633,��쐼,1.2,��
2020/12/06,23:40,0.663,0.954,0.607,1.205,0.846,0.381,0.672,0.633,��쓌,1.9,��
2020/12/06,23:50,0.665,0.952,0.605,1.206,0.847,0.381,0.672,0.634,��,0.9,��
